Regional Weather Roundup
Issued by NWS

Home | Current Version | Previous Version | Graphics & Text | Print | Product List | Glossary On
Versions: 1 2 3 4 5 6 7 8 9 10 11 12 13 14 15 16 17 18 19 20 21 22 23 24 25 26 27 28 29 30 31 32 33 34 35 36 37 38 39 40 41 42 43 44 45 46 47 48 49 50
971
ASUS45 KBOU 201607
RWRCO

WEATHER ROUNDUP FOR COLORADO
NATIONAL WEATHER SERVICE DENVER/BOULDER CO
900 AM MST MON FEB 20 2017

NOTE: "FAIR" INDICATES FEW OR NO CLOUDS BELOW 12000 FEET WITH NO
SIGNIFICANT WEATHER AND/OR OBSTRUCTIONS TO VISIBILITY.

COZ001>005-013-030-031-201700-
...NORTHWEST COLORADO...

CITY           SKY/WX    TMP DP  RH WIND       PRES   REMARKS
CRAIG          PTSUNNY   27  25  92 CALM      30.15R
HAYDEN         CLOUDY    23  19  86 CALM      30.13R VSB<1/4
MEEKER         CLOUDY    30  26  85 NE5       30.16R WCI  25
MOUNT WERNER   NOT AVBL
STEAMBOAT SPGS CLOUDY    26  25  96 CALM      30.13R VSB<1/4
WALDEN         NOT AVBL
$$

COZ006>008-011-201700-
...WEST CENTRAL VALLEYS...

CITY           SKY/WX    TMP DP  RH WIND       PRES   REMARKS
GRAND JUNCTION CLOUDY    42  39  89 SE12      30.16R
MONTROSE       FAIR      38  31  76 SE7       30.23R
EAGLE          MOSUNNY   34  25  69 E6        30.19R WCI  29
RIFLE          PTSUNNY   41  32  70 CALM      30.19R
DELTA          CLOUDY    40  36  87 E6        30.22R
NUCLA          FAIR      37  32  81 E9        30.25S
$$

COZ017>023-064>068-201700-
...SOUTHWEST COLORADO...

CITY           SKY/WX    TMP DP  RH WIND       PRES   REMARKS
DURANGO        FAIR      32  27  81 CALM      30.22R
CORTEZ         FAIR      39  35  86 NE8       30.22R
PAGOSA SPRINGS CLOUDY    31  26  82 NE5       30.23R WCI  26
TELLURIDE      FAIR      27  19  73 SE3       30.25R
WOLF CREEK PAS FAIR      21   3  45 E3        30.27R
$$

COZ009-010-012-014-032>034-037-058>063-201700-
...CENTRAL COLORADO...

CITY           SKY/WX    TMP DP  RH WIND       PRES   REMARKS
ASPEN          FAIR      32  20  61 SE12      30.17R WCI  23
BUENA VISTA    FAIR      36  11  35 N6        30.13R
COPPER MTN     NOT AVBL
BERTHOUD PASS  CLOUDY    10   1  67 NW22      30.12R WCI  -9
COTTONWOOD PAS FAIR      32   3  29 SW15G24   30.14R WCI  22
GUNNISON       FAIR      25  18  74 CALM      30.22R
KREMMLING      FAIR      34  28  80 CALM      30.16R
LEADVILLE      FAIR      23  13  65 N6        30.15R WCI  16
MONARCH PASS   FOG       16  12  86 W25       30.25R VSB<1/4 WCI  -3
SALIDA         FAIR      40  13  33 W8        30.20F
SUNLIGHT       NOT AVBL
WILKERSON PASS FAIR      23   1  39 W8G29     30.13R WCI  14
$$

COZ069>075-201700-
...SAN LUIS VALLEY/SANGRE DE CRISTO MOUNTAINS...

CITY           SKY/WX    TMP DP  RH WIND       PRES   REMARKS
ALAMOSA        FAIR      35  22  58 S5        30.16R WCI  31
LA VETA PASS   FAIR      28  18  64 NE25G31   30.11S WCI  14
SAGUACHE       FAIR      36  19  51 N17       30.16S
$$

COZ035-036-038>040-201700-
...NORTHERN COLORADO FRONT RANGE...

CITY           SKY/WX    TMP DP  RH WIND       PRES   REMARKS
DENVER INTL AP FAIR      49  17  28 W10       30.00R
DMNS CITY PARK   N/A     50  12  22 W6G17     30.00S
AURORA         MOSUNNY   48  15  26 NW17      30.00S
FRONT RANGE AP NOT AVBL
ERIE MUNI ARPT FAIR      51  10  19 CALM      29.99S
BOULDER MUN AP FAIR      50  14  23 NE5G26    29.97S
CENTENNIAL     FAIR      47  13  25 NW14G20   30.01R
BROOMFIELD     SUNNY     48  14  25 NW6       30.00R
FORT COLLINS   FAIR      52  14  22 NW7       29.98R
LONGMONT       FAIR      54  19  25 E9        29.99R
$$

COZ041-046-047-076>085-087-088-201700-
...PIKES PEAK/PALMER DIVIDE AND SOUTHERN FOOTHILLS...

CITY           SKY/WX    TMP DP  RH WIND       PRES   REMARKS
COLO. SPRINGS  FAIR      48   6  18 N14       30.04R
A. F. ACADEMY  FAIR      44   6  20 NW15      30.03R
SCHRIEVER AFB  FAIR      46   6  19 N10G18    30.04R
ELLICOTT       FAIR     N/A N/A N/A N15       30.02R
FALCON         FAIR      44   6  21 NW13      30.05R
FORT CARSON    FAIR      44  15  31 E5        30.02R
LIMON          FAIR      47  17  30 NW14      30.01R
MONUMENT HILL  FAIR      41  12  30 NW18G28   30.04R
TRINIDAD       FAIR      46  21  37 CALM      30.05R
$$

COZ042>045-048>051-090-091-201700-
...NORTHEAST COLORADO...

CITY           SKY/WX    TMP DP  RH WIND       PRES   REMARKS
GREELEY ARPT   FAIR      50  22  33 NW20      29.97F
AKRON          FAIR      48  18  30 NW17G23   29.96R
BURLINGTON     FAIR      53  20  27 NW32G45   29.94R
WRAY           NOT AVBL
STERLING       FAIR      52  23  32 N20G26    29.94R
HOLYOKE        FAIR      54  23  30 NW25G35   29.90S
FORT MORGAN    FAIR      50  17  26 NW22G33   29.97R
$$

COZ086-089-092>099-201700-
...SOUTHEAST COLORADO...

CITY           SKY/WX    TMP DP  RH WIND       PRES   REMARKS
PUEBLO         FAIR      52  17  25 NW14      30.01R
LA JUNTA       FAIR      50  28  42 W10       30.00R
LAMAR          FAIR      55  19  24 N23G30    29.95R
SPRINGFIELD      N/A     51  21  30 NW26G37   29.97R
$$




USA.gov is the U.S. government's official web portal to all federal, state and local government web resources and services.